Lid_Strength_Index
6 9 11 9 8 9 9 11 12 12 11 11 11 10 9 8 8 8 8 8 8 7 6 6 6 5 5 5 5 5 2 0 0 1 1 1 1 1 0 -0 -0 -0 -0 -0
9 12 8 7 7 9 9 11 12 12 11 11 12 12 10 10 11 10 9 8 8 8 7 6 6 5 5 5 6 5 4 2 0 0 0 1 1 0 0 0 0 -0 -0 0
10 9 7 9 9 10 10 11 11 12 12 12 13 13 13 11 10 10 9 8 8 9 9 7 6 5 5 5 5 5 4 3 1 0 0 0 0 1 1 1 0 -0 -0 -0
9 7 10 10 10 9 12 9 10 11 13 15 12 17 14 13 12 12 11 10 10 9 9 9 9 8 7 5 4 5 4 4 3 0 1 1 2 3 1 1 0 0 -1 -0
10 10 10 10 9 8 10 9 10 10 12 13 13 15 13 13 14 13 12 11 11 10 10 10 10 9 9 8 7 7 7 6 5 4 4 3 3 3 2 2 2 1 1 0
9 7 7 9 8 7 7 9 10 11 12 18 13 15 15 14 13 13 12 12 12 11 11 11 10 10 9 9 8 8 8 8 7 6 5 4 4 4 4 3 3 3 2 1
11 10 8 7 10 8 8 11 18 18 18 18 13 14 14 13 12 12 12 12 12 12 11 11 11 10 10 10 9 9 9 9 8 8 8 8 7 6 6 6 6 6 6 5
15 16 10 8 9 11 10 11 16 21 19 17 15 17 15 13 12 12 12 11 11 11 11 11 10 10 10 10 10 10 10 11 10 10 9 9 9 9 8 8 8 8 8 8
13 15 9 8 8 8 11 13 10 14 16 16 15 15 13 12 13 13 12 12 12 11 11 11 10 10 11 10 10 10 11 11 11 10 10 10 10 10 10 9 9 9 9 9
10 15 10 9 8 8 9 8 14 13 19 18 16 16 15 14 14 13 13 12 12 11 10 9 9 10 10 10 10 10 10 11 10 10 9 10 10 9 9 9 9 9 9 9
8 11 14 10 12 12 11 12 12 11 14 16 18 15 10 12 12 12 12 11 11 10 10 9 8 9 9 9 9 10 10 11 11 10 10 10 10 10 10 10 10 9 9 9
9 11 16 14 9 8 10 11 11 14 17 14 15 15 10 10 10 10 10 10 9 9 9 8 8 9 9 9 9 10 10 10 10 10 10 10 10 11 11 11 11 11 11 10
8 12 17 16 12 9 12 11 11 11 12 16 16 15 9 8 9 9 10 9 9 9 9 8 8 8 9 9 9 9 10 10 10 10 10 10 10 11 11 11 10 10 10 10
7 11 13 15 14 11 13 12 11 12 16 15 14 13 11 9 9 10 10 10 10 9 9 9 8 8 8 8 9 10 10 10 10 10 10 11 11 12 12 11 11 11 11 10
9 14 12 12 11 11 11 12 12 12 12 15 13 12 10 8 10 10 10 10 10 10 9 9 9 8 8 9 10 10 10 11 11 11 11 12 12 12 12 12 12 12 11 11
8 13 13 15 13 11 13 11 11 11 11 11 11 11 7 9 9 10 10 9 9 9 9 8 8 8 9 10 11 11 12 12 12 12 12 12 13 13 12 12 12 11 11 10
11 12 13 16 16 15 15 13 11 10 9 10 13 10 10 11 11 10 10 10 9 9 9 9 9 8 10 11 12 12 12 11 12 12 12 12 13 13 12 12 11 11 11 10
13 13 13 15 16 18 14 12 12 11 11 10 11 11 10 11 10 9 9 9 8 9 9 8 8 9 10 11 12 12 11 12 12 12 13 13 13 13 13 12 12 12 12 11
9 11 15 15 15 15 14 13 13 13 13 10 10 11 11 10 10 10 8 8 8 8 8 8 9 10 11 12 12 12 12 12 13 13 13 13 13 13 13 12 12 12 12 12
10 10 12 14 16 18 13 12 10 11 15 10 10 10 10 10 13 11 8 8 8 8 8 10 10 11 11 13 14 14 14 14 15 15 14 14 13 13 13 13 13 11 11 11
13 12 14 15 15 13 11 10 10 16 14 10 9 9 10 11 10 8 8 8 8 9 9 10 11 12 14 14 15 15 15 16 15 15 14 14 14 14 13 13 13 12 11 10
14 14 14 14 16 17 10 11 13 10 8 8 8 8 9 9 8 9 9 9 10 10 11 12 13 14 14 15 16 16 16 16 15 15 15 15 15 14 13 14 13 12 10 10
15 12 12 12 12 10 9 8 7 7 8 8 9 9 9 9 10 9 10 10 11 12 13 14 15 15 15 17 17 17 16 16 16 17 17 16 15 14 14 14 13 12 10 10
12 11 13 13 10 10 10 9 9 8 9 8 9 9 9 10 10 11 11 12 12 13 14 15 16 16 16 18 18 18 18 17 19 18 17 16 15 15 14 13 13 12 11 11
11 12 12 13 11 10 10 9 8 9 9 10 10 10 10 11 11 12 13 13 14 14 15 16 17 17 18 18 18 18 18 19 19 18 17 16 15 15 14 14 13 12 11 11
11 12 13 13 10 11 11 10 9 10 10 10 10 11 12 13 13 13 14 14 15 15 16 17 18 19 19 19 19 19 20 20 20 18 16 16 16 15 14 14 13 11 10 10